Stündliche Wetter Dabcze

Heute, 28 Oktober, Mittwoch

Zeit Temperatur Niederschläge Wind Luftdruck Luftfeuchtigkeit
00:00 +8°C° 0 mm 3 m/S 751 mmHg 80%
01:00 +7°C° 0 mm 3 m/S 751 mmHg 82%
02:00 +7°C° 0 mm 3 m/S 751 mmHg 81%
03:00 +7°C° 0 mm 3 m/S 751 mmHg 81%
04:00 +7°C° 0 mm 3 m/S 751 mmHg 81%
05:00 +6°C° 0 mm 4 m/S 751 mmHg 80%
06:00 +6°C° 0 mm 4 m/S 751 mmHg 80%
07:00 +6°C° 0 mm 5 m/S 750 mmHg 77%
08:00 +7°C° 0 mm 5 m/S 751 mmHg 70%
09:00 +9°C° 0 mm 5 m/S 751 mmHg 64%
10:00 +10°C° 0 mm 6 m/S 751 mmHg 57%
11:00 +12°C° 0 mm 5 m/S 751 mmHg 57%
12:00 +12°C° 0 mm 5 m/S 751 mmHg 57%
13:00 +13°C° 0 mm 4 m/S 751 mmHg 58%
14:00 +12°C° 0 mm 4 m/S 751 mmHg 63%
15:00 +12°C° 0 mm 4 m/S 751 mmHg 67%
16:00 +11°C° 0 mm 3 m/S 751 mmHg 71%
17:00 +11°C° 0.1 mm 3 m/S 751 mmHg 73%
18:00 +10°C° 0.1 mm 3 m/S 751 mmHg 76%
19:00 +10°C° 0.1 mm 2 m/S 751 mmHg 78%
20:00 +10°C° 0 mm 3 m/S 751 mmHg 80%
21:00 +9°C° 0 mm 3 m/S 752 mmHg 82%
22:00 +9°C° 0 mm 3 m/S 752 mmHg 83%
23:00 +9°C° 0 mm 3 m/S 752 mmHg 84%

Morgen, 29 Oktober, Donnerstag

Zeit Temperatur Niederschläge Wind Luftdruck Luftfeuchtigkeit
00:00 +9°C° 0 mm 3 m/S 752 mmHg 84%
01:00 +9°C° 0 mm 3 m/S 751 mmHg 84%
02:00 +8°C° 0 mm 4 m/S 751 mmHg 84%
03:00 +8°C° 0 mm 4 m/S 751 mmHg 83%
04:00 +8°C° 0 mm 4 m/S 750 mmHg 83%
05:00 +7°C° 0 mm 4 m/S 750 mmHg 83%
06:00 +7°C° 0 mm 4 m/S 750 mmHg 83%
07:00 +7°C° 0 mm 4 m/S 750 mmHg 83%
08:00 +8°C° 0.1 mm 5 m/S 750 mmHg 81%
09:00 +9°C° 0.1 mm 5 m/S 750 mmHg 80%
10:00 +10°C° 0.1 mm 6 m/S 750 mmHg 78%
11:00 +10°C° 0.2 mm 6 m/S 750 mmHg 73%
12:00 +11°C° 0.2 mm 7 m/S 750 mmHg 68%
13:00 +11°C° 0.2 mm 7 m/S 750 mmHg 62%
14:00 +11°C° 0.1 mm 7 m/S 751 mmHg 64%
15:00 +10°C° 0.1 mm 6 m/S 751 mmHg 65%
16:00 +9°C° 0.1 mm 5 m/S 752 mmHg 67%
17:00 +9°C° 0 mm 5 m/S 752 mmHg 68%
18:00 +8°C° 0 mm 5 m/S 753 mmHg 68%
19:00 +8°C° 0 mm 5 m/S 754 mmHg 69%
20:00 +8°C° 0 mm 5 m/S 754 mmHg 71%
21:00 +7°C° 0 mm 5 m/S 754 mmHg 74%
22:00 +7°C° 0 mm 5 m/S 755 mmHg 76%
23:00 +7°C° 0 mm 5 m/S 755 mmHg 78%

übermorgen, 30 Oktober, Freitag

Zeit Temperatur Niederschläge Wind Luftdruck Luftfeuchtigkeit
00:00 +6°C° 0 mm 5 m/S 755 mmHg 80%
01:00 +6°C° 0 mm 5 m/S 755 mmHg 82%
02:00 +6°C° 0 mm 4 m/S 755 mmHg 82%
03:00 +5°C° 0 mm 4 m/S 755 mmHg 82%
04:00 +5°C° 0 mm 4 m/S 755 mmHg 82%
05:00 +5°C° 0 mm 3 m/S 755 mmHg 82%
06:00 +7°C° 0 mm 3 m/S 755 mmHg 82%
07:00 +7°C° 0 mm 3 m/S 755 mmHg 82%
08:00 +7°C° 0.5 mm 3 m/S 755 mmHg 85%
09:00 +6°C° 0.5 mm 4 m/S 755 mmHg 88%
10:00 +7°C° 0.5 mm 4 m/S 755 mmHg 91%
11:00 +7°C° 1.3 mm 4 m/S 754 mmHg 93%
12:00 +8°C° 1.3 mm 4 m/S 754 mmHg 94%
13:00 +8°C° 1.3 mm 4 m/S 753 mmHg 95%
14:00 +10°C° 0.4 mm 4 m/S 753 mmHg 95%
15:00 +10°C° 0.4 mm 5 m/S 753 mmHg 94%
16:00 +10°C° 0.4 mm 6 m/S 753 mmHg 93%
17:00 +11°C° 0.5 mm 6 m/S 753 mmHg 93%
18:00 +11°C° 0.5 mm 6 m/S 753 mmHg 94%
19:00 +11°C° 0.5 mm 6 m/S 753 mmHg 94%
20:00 +11°C° 0.9 mm 6 m/S 754 mmHg 94%
21:00 +11°C° 0.9 mm 6 m/S 754 mmHg 93%
22:00 +11°C° 0.9 mm 6 m/S 754 mmHg 93%
23:00 +11°C° 0.4 mm 6 m/S 754 mmHg 93%

31 Oktober, Samstag

Zeit Temperatur Niederschläge Wind Luftdruck Luftfeuchtigkeit
00:00 +13°C° 0.4 mm 6 m/S 754 mmHg 93%
01:00 +13°C° 0.4 mm 6 m/S 755 mmHg 93%
02:00 +13°C° 0.3 mm 6 m/S 755 mmHg 93%
03:00 +13°C° 0.3 mm 5 m/S 755 mmHg 94%
04:00 +13°C° 0.3 mm 5 m/S 756 mmHg 94%
05:00 +13°C° 0.2 mm 5 m/S 756 mmHg 94%
06:00 +13°C° 0.2 mm 5 m/S 757 mmHg 94%
07:00 +13°C° 0.2 mm 4 m/S 757 mmHg 95%
08:00 +13°C° 0.2 mm 4 m/S 757 mmHg 95%
09:00 +13°C° 0.2 mm 3 m/S 757 mmHg 94%
10:00 +13°C° 0.2 mm 3 m/S 758 mmHg 94%
11:00 +13°C° 0.2 mm 3 m/S 758 mmHg 94%
12:00 +13°C° 0.2 mm 2 m/S 758 mmHg 94%
13:00 +13°C° 0.2 mm 2 m/S 758 mmHg 95%
14:00 +13°C° 0 mm 2 m/S 758 mmHg 95%
15:00 +13°C° 0 mm 1 m/S 758 mmHg 95%
16:00 +13°C° 0 mm 1 m/S 758 mmHg 95%
17:00 +13°C° 0 mm 1 m/S 758 mmHg 95%
18:00 +13°C° 0 mm 1 m/S 758 mmHg 95%
19:00 +13°C° 0 mm 1 m/S 758 mmHg 95%
20:00 +13°C° 0 mm 1 m/S 758 mmHg 95%
21:00 +12°C° 0 mm 1 m/S 758 mmHg 95%
22:00 +12°C° 0 mm 2 m/S 758 mmHg 95%
23:00 +12°C° 0 mm 2 m/S 758 mmHg 94%

1 November, Sonntag

Zeit Temperatur Niederschläge Wind Luftdruck Luftfeuchtigkeit
00:00 +11°C° 0 mm 3 m/S 758 mmHg 94%
01:00 +10°C° 0 mm 3 m/S 758 mmHg 94%
02:00 +10°C° 0 mm 3 m/S 758 mmHg 93%
03:00 +10°C° 0 mm 4 m/S 757 mmHg 92%
04:00 +8°C° 0 mm 4 m/S 757 mmHg 91%
05:00 +8°C° 0 mm 4 m/S 757 mmHg 92%
06:00 +8°C° 0 mm 4 m/S 757 mmHg 93%
07:00 +8°C° 0 mm 4 m/S 757 mmHg 94%
08:00 +10°C° 0 mm 4 m/S 757 mmHg 88%
09:00 +10°C° 0 mm 5 m/S 756 mmHg 82%
10:00 +12°C° 0 mm 5 m/S 756 mmHg 77%
11:00 +13°C° 0 mm 5 m/S 756 mmHg 75%
12:00 +14°C° 0 mm 5 m/S 756 mmHg 73%
13:00 +15°C° 0 mm 5 m/S 755 mmHg 72%
14:00 +15°C° 0 mm 4 m/S 755 mmHg 75%
15:00 +14°C° 0 mm 4 m/S 755 mmHg 79%
16:00 +13°C° 0 mm 3 m/S 755 mmHg 82%
17:00 +13°C° 0 mm 3 m/S 755 mmHg 84%
18:00 +12°C° 0 mm 3 m/S 755 mmHg 86%
19:00 +11°C° 0 mm 3 m/S 755 mmHg 88%
20:00 +11°C° 0 mm 3 m/S 755 mmHg 87%
21:00 +11°C° 0 mm 3 m/S 754 mmHg 86%
22:00 +11°C° 0 mm 3 m/S 754 mmHg 85%
23:00 +11°C° 0 mm 3 m/S 754 mmHg 84%

2 November, Montag

Zeit Temperatur Niederschläge Wind Luftdruck Luftfeuchtigkeit
00:00 +12°C° 0 mm 3 m/S 754 mmHg 83%
01:00 +12°C° 0 mm 3 m/S 754 mmHg 82%
02:00 +12°C° 0 mm 3 m/S 754 mmHg 82%
03:00 +12°C° 0 mm 3 m/S 753 mmHg 82%
04:00 +12°C° 0 mm 3 m/S 753 mmHg 81%
05:00 +12°C° 0 mm 3 m/S 753 mmHg 82%
06:00 +13°C° 0 mm 3 m/S 753 mmHg 82%
07:00 +13°C° 0 mm 3 m/S 753 mmHg 83%
08:00 +13°C° 0 mm 3 m/S 753 mmHg 80%
09:00 +14°C° 0 mm 3 m/S 753 mmHg 78%
10:00 +16°C° 0 mm 3 m/S 753 mmHg 76%
11:00 +17°C° 0 mm 3 m/S 753 mmHg 73%
12:00 +17°C° 0 mm 3 m/S 753 mmHg 70%
13:00 +18°C° 0 mm 3 m/S 753 mmHg 67%
14:00 +17°C° 0 mm 3 m/S 753 mmHg 70%
15:00 +17°C° 0 mm 2 m/S 753 mmHg 73%
16:00 +16°C° 0 mm 2 m/S 753 mmHg 76%
17:00 +15°C° 0 mm 2 m/S 753 mmHg 78%
18:00 +15°C° 0 mm 2 m/S 753 mmHg 79%
19:00 +14°C° 0 mm 2 m/S 753 mmHg 81%
20:00 +14°C° 0 mm 2 m/S 754 mmHg 81%
21:00 +14°C° 0 mm 2 m/S 754 mmHg 81%
22:00 +14°C° 0 mm 2 m/S 754 mmHg 81%
23:00 +13°C° 0 mm 2 m/S 754 mmHg 82%
Mehr zeigen

Wir brauchen deine Erlaubnis

Meteoprog und unser Service Anbieter werden persönliche Daten aufbewahren, so wie Cookies, Geräte Bezeichnung oder ähnliche Technologien von deinem Gerät und Prozess, so wie Persönliche Daten Inhalte und Werbungen, genauso wie social Media und den Verkehr zu analysieren.

  • Aufbewahrung und/oder Zugang zu deiner Geräte Informationen.

    Cookies, Geräte Bezeichnung oder andere Informationen, können aufbewahrt oder Zugang zu deinem Gerät erhalten, für den Grund, der oben angegeben wird.

  • Personalisierte Werbung und Inhalte, Messungen, Einblick in das Publikum und Produkt Entwicklung.

    Werbungen und Inhalte können personalisiert werden, basierend auf ein Profil. Mehr Daten können besser personalisierte Werbungen und Inhalte hinzufügen. Werbung und Inhalte können gezeigt und gemessen werden. Einblicke über das Publikum, welche die Werbung gesehen haben und den Inhalt, können abgeleitet werden. So wie Daten können genutzt werden, um es zu verbessern oder die Benutzer Erfahrung zu verbessern das System und die Software.

Wenn du “Ich stimme zu” klickst, erlaubst du uns, die Cookies zu benutzen die Geräte Bezeichnung, den Web oder ähnliche Technologien zu benutzen. Deine Settings, können in deinem Gerät bei deinem Browser geändert werden.

Für den bestimmten Zweck, berechtigten Interessen beruhen darauf, mehr als auf den Inhalt. Du kannst mehr darüber in unseren Privaten und Cookie Politik lesen.